Regional Weather Roundup
Issued by NWS

Home | Current Version | Previous Version | Text Only | Print | Product List | Glossary Off
Versions: 1 2 3 4 5 6 7 8 9 10 11 12 13 14 15 16 17 18 19 20 21 22 23 24 25 26 27 28 29 30 31 32 33 34 35 36 37 38 39 40 41 42 43 44 45 46 47 48 49 50

525
ASUS43 KTOP 240808
RWRKS

WEATHER ROUNDUP FOR KANSAS
NATIONAL WEATHER SERVICE GOODLAND KS
300 AM CDT TUE APR 24 2018

NOTE:  "FAIR" INDICATES FEW OR NO CLOUDS BELOW 12,000 FEET WITH NO
SIGNIFICANT WEATHER AND/OR OBSTRUCTIONS TO VISIBILITY.

KSZ001>006-013>018-027>032-041>047-240900-
NORTHWEST KANSAS

CITY           SKY/WX    TMP DP  RH WIND       PRES   REMARKS
GOODLAND       CLOUDY    49  43  80 CALM      30.15S
HAYS           CLEAR     46  41  82 N6        30.13R
HILL CITY      PTCLDY    43  40  89 W3        30.13F
RUSSELL        CLEAR     49  42  77 N6        30.11R
$$

KSZ061>065-074>080-084>089-240900-
SOUTHWEST KANSAS

CITY           SKY/WX    TMP DP  RH WIND       PRES   REMARKS
DODGE CITY     CLEAR     47  42  83 SE7       30.10R
ELKHART        PTCLDY    49  46  88 SE8       30.05S
GARDEN CITY    CLEAR     48  41  76 E8        30.09R
GREAT BEND     CLEAR     46  43  89 NW6       30.11R
LIBERAL        CLEAR     50  43  77 SE10      30.07S
PRATT          CLEAR     49  43  78 CALM      30.09S
$$

KSZ066>073-081>083-090>101-240900-
SOUTHEAST KANSAS

CITY           SKY/WX    TMP DP  RH WIND       PRES   REMARKS
CHANUTE        CLEAR     45  41  86 NW3       30.06R
COFFEYVILLE    CLEAR     47  45  93 NW3       30.05R
HUTCHINSON     CLEAR     45  42  89 CALM      30.08S
MEDICINE LODGE   N/A     49  44  83 CALM      30.07R
NEWTON         CLEAR     50  39  66 N7        30.09R
PARSONS        CLEAR     44  42  93 CALM      30.06R
WICHITA INTL   PTCLDY    53  44  71 N5        30.07S
WICHITA JABRA  CLEAR     54  41  61 N6        30.07S
WICHITA MCCONL CLEAR     52  43  71 N5        30.07R
WINFIELD       CLEAR     48  47  96 N3        30.07S
$$

KSZ007>012-019>026-033>040-048>060-102>105-240900-
NORTHEAST KANSAS

CITY           SKY/WX    TMP DP  RH WIND       PRES   REMARKS
CONCORDIA      CLEAR     49  36  61 NW3       30.11S
EMPORIA        CLEAR     49  40  71 NW5       30.07R
LAWRENCE       CLEAR     42  36  79 NW8       30.07S
MANHATTAN      CLEAR     42  37  82 CALM      30.09S
MARYSVILLE     CLOUDY    43  34  70 N5        30.11S
OLATHE IND     CLEAR     51  35  54 NW3       30.07S
OLATHE EXE     CLEAR     57  31  37 N6        30.06R
SALINA         CLEAR     50  42  74 NW5       30.10R
TOPEKA BILLARD CLEAR     47  41  80 CALM      30.08R
TOPEKA FORBES  CLEAR     47  36  65 NW6       30.07S
$$




USA.gov is the U.S. government's official web portal to all federal, state and local government web resources and services.